START_TIME,STEP,MOV.,AL01,t_acc.,AL02,t_acc.,E37,t_acc.,H21,t_acc.
1979-07-28 18:00:33.470 ,1,1,0.,24.0,0.,24.0,1.,24.0,0.,24.0
1979-07-28 18:00:57.470 ,2,1,0.,24.0,0.,24.0,7.,24.0,0.,24.0
1979-07-28 18:01:21.470 ,6,1,0.,24.0,0.,24.0,2.,24.0,0.,24.0
1979-07-28 18:01:45.470 ,5,1,19.,24.0,0.,24.0,1.,24.0,0.,24.0
1979-07-28 18:02:09.470 ,1,1,0.,24.0,0.,24.0,3.,24.0,0.,24.0
1979-07-28 18:02:33.470 ,2,1,0.,24.0,0.,24.0,4.,24.0,0.,24.0
1979-07-28 18:02:57.470 ,6,1,0.,24.0,0.,24.0,2.,24.0,0.,24.0
1979-07-28 18:03:21.470 ,5,1,14.,24.0,0.,24.0,0.,24.0,0.,24.0
1979-07-28 18:03:45.470 ,1,1,1.,24.0,0.,24.0,1.,24.0,0.,24.0
1979-07-28 18:04:09.470 ,2,1,0.,24.0,0.,24.0,0.,24.0,0.,24.0
1979-07-28 18:04:33.470 ,6,1,0.,24.0,0.,24.0,1.,24.0,0.,24.0
1979-07-28 18:04:57.470 ,5,1,20.,24.0,0.,24.0,2.,24.0,0.,24.0
1979-07-28 18:05:21.470 ,1,1,0.,24.0,0.,24.0,2.,24.0,0.,24.0
1979-07-28 18:05:45.470 ,0,0,0.,24.0,0.,24.0,1.,24.0,0.,24.0
1979-07-28 18:06:09.470 ,0,0,0.,24.0,0.,24.0,1.,24.0,0.,24.0
1979-07-28 18:06:33.470 ,5,1,17.,24.0,0.,24.0,2.,24.0,0.,24.0
1979-07-28 18:06:57.470 ,5,0,0.,24.0,0.,24.0,3.,24.0,0.,24.0
1979-07-28 18:07:21.470 ,4,1,0.,24.0,0.,24.0,1.,24.0,0.,24.0
1979-07-28 18:07:45.470 ,4,0,0.,24.0,0.,24.0,4.,24.0,0.,24.0
1979-07-28 18:08:09.470 ,3,1,0.,24.0,0.,24.0,0.,24.0,0.,24.0
1979-07-28 18:08:33.470 ,3,0,0.,24.0,0.,24.0,0.,24.0,0.,24.0
1979-07-28 18:08:57.470 ,2,1,0.,24.0,0.,24.0,2.,24.0,0.,24.0
1979-07-28 18:09:21.470 ,2,0,0.,24.0,0.,24.0,0.,24.0,0.,24.0
1979-07-28 18:09:45.470 ,1,1,0.,24.0,0.,24.0,5.,24.0,0.,24.0
1979-07-28 18:10:09.470 ,1,0,0.,24.0,0.,24.0,2.,24.0,0.,24.0
1979-07-28 18:10:33.470 ,0,1,1.,24.0,0.,24.0,3.,24.0,0.,24.0
1979-07-28 18:10:57.470 ,0,0,0.,24.0,0.,24.0,1.,24.0,0.,24.0
1979-07-28 18:11:21.470 ,0,1,0.,24.0,0.,24.0,0.,24.0,0.,24.0
1979-07-28 18:11:45.470 ,0,0,0.,24.0,0.,24.0,0.,24.0,0.,24.0
1979-07-28 18:12:09.470 ,1,1,0.,24.0,0.,24.0,0.,24.0,0.,24.0
1979-07-28 18:12:33.470 ,1,0,0.,24.0,0.,24.0,2.,24.0,0.,24.0
1979-07-28 18:12:57.470 ,2,1,1.,24.0,0.,24.0,2.,24.0,0.,24.0
1979-07-28 18:13:21.470 ,2,0,0.,24.0,0.,24.0,0.,24.0,0.,24.0
1979-07-28 18:13:45.470 ,3,1,1.,24.0,0.,24.0,2.,24.0,0.,24.0
1979-07-28 18:14:09.470 ,3,0,0.,24.0,0.,24.0,2.,24.0,0.,24.0
1979-07-28 18:14:33.470 ,4,1,0.,24.0,0.,24.0,1.,24.0,0.,24.0
1979-07-28 18:14:57.470 ,4,0,0.,24.0,0.,24.0,2.,24.0,0.,24.0
1979-07-28 18:15:21.470 ,5,1,0.,24.0,0.,24.0,1.,24.0,0.,24.0
1979-07-28 18:15:45.470 ,5,0,1.,24.0,0.,24.0,4.,24.0,0.,24.0
1979-07-28 18:16:09.470 ,6,1,0.,24.0,0.,24.0,0.,24.0,0.,24.0
1979-07-28 18:16:33.470 ,6,0,0.,24.0,0.,24.0,5.,24.0,0.,24.0
1979-07-28 18:16:57.470 ,7,1,8.,24.0,0.,24.0,0.,24.0,0.,24.0
1979-07-28 18:17:21.470 ,7,0,24.,24.0,0.,24.0,1.,24.0,0.,24.0
1979-07-28 18:17:45.470 ,7,1,27.,24.0,0.,24.0,0.,24.0,0.,24.0
1979-07-28 18:18:09.470 ,7,0,39.,24.0,0.,24.0,1.,24.0,0.,24.0
1979-07-28 18:18:33.470 ,6,1,19.,24.0,0.,24.0,4.,24.0,0.,24.0
1979-07-28 18:18:57.470 ,6,0,0.,24.0,0.,24.0,1.,24.0,0.,24.0
1979-07-28 18:19:21.470 ,5,1,0.,24.0,0.,24.0,2.,24.0,0.,24.0
1979-07-28 18:19:45.470 ,5,0,1.,24.0,0.,24.0,1.,24.0,0.,24.0
1979-07-28 18:20:09.470 ,4,1,0.,24.0,0.,24.0,1.,24.0,0.,24.0
1979-07-28 18:20:33.470 ,4,0,0.,24.0,0.,24.0,2.,24.0,0.,24.0
1979-07-28 18:20:57.470 ,3,1,0.,24.0,0.,24.0,0.,24.0,0.,24.0
1979-07-28 18:21:21.470 ,3,0,0.,24.0,1.,24.0,0.,24.0,0.,24.0
1979-07-28 18:21:45.470 ,2,1,0.,24.0,0.,24.0,3.,24.0,0.,24.0
1979-07-28 18:22:09.470 ,2,0,0.,24.0,0.,24.0,1.,24.0,0.,24.0
1979-07-28 18:22:33.470 ,1,1,0.,24.0,0.,24.0,2.,24.0,0.,24.0
1979-07-28 18:22:57.470 ,1,0,0.,24.0,0.,24.0,0.,24.0,0.,24.0
1979-07-28 18:23:21.470 ,0,1,0.,24.0,0.,24.0,3.,24.0,0.,24.0
1979-07-28 18:23:45.470 ,0,0,0.,24.0,0.,24.0,5.,24.0,0.,24.0
1979-07-28 18:24:09.470 ,0,1,0.,24.0,0.,24.0,2.,24.0,0.,24.0
1979-07-28 18:24:33.470 ,0,0,0.,24.0,0.,24.0,1.,24.0,0.,24.0
1979-07-28 18:24:57.470 ,1,1,0.,24.0,1.,24.0,3.,24.0,0.,24.0
1979-07-28 18:25:21.470 ,1,0,0.,24.0,0.,24.0,0.,24.0,0.,24.0
1979-07-28 18:25:45.470 ,2,1,0.,24.0,0.,24.0,3.,24.0,0.,24.0
1979-07-28 18:26:09.470 ,2,0,0.,24.0,0.,24.0,0.,24.0,0.,24.0
1979-07-28 18:26:33.470 ,3,1,0.,24.0,0.,24.0,1.,24.0,0.,24.0
1979-07-28 18:26:57.470 ,3,0,0.,24.0,0.,24.0,1.,24.0,0.,24.0
1979-07-28 18:27:21.470 ,4,1,1.,24.0,0.,24.0,2.,24.0,0.,24.0
1979-07-28 18:27:45.470 ,4,0,0.,24.0,0.,24.0,1.,24.0,0.,24.0
1979-07-28 18:28:09.470 ,5,1,0.,24.0,0.,24.0,1.,24.0,0.,24.0
1979-07-28 18:28:33.470 ,5,0,0.,24.0,0.,24.0,2.,24.0,0.,24.0
1979-07-28 18:28:57.470 ,6,1,0.,24.0,0.,24.0,2.,24.0,0.,24.0
1979-07-28 18:29:21.470 ,6,0,0.,24.0,0.,24.0,2.,24.0,0.,24.0
1979-07-28 18:29:45.470 ,7,1,11.,24.0,1.,24.0,1.,24.0,0.,24.0
1979-07-28 18:30:09.470 ,7,0,36.,24.0,0.,24.0,0.,24.0,0.,24.0
1979-07-28 18:30:33.470 ,7,1,33.,24.0,0.,24.0,2.,24.0,0.,24.0
1979-07-28 18:30:57.470 ,7,0,27.,24.0,1.,24.0,2.,24.0,0.,24.0
1979-07-28 18:31:21.470 ,6,1,27.,24.0,0.,24.0,1.,24.0,0.,24.0
1979-07-28 18:31:45.470 ,6,0,0.,24.0,0.,24.0,1.,24.0,0.,24.0
1979-07-28 18:32:09.470 ,5,1,0.,24.0,0.,24.0,1.,24.0,0.,24.0
1979-07-28 18:32:33.470 ,5,0,0.,24.0,0.,24.0,0.,24.0,0.,24.0
1979-07-28 18:32:57.470 ,4,1,1.,24.0,1.,24.0,0.,24.0,0.,24.0
1979-07-28 18:33:21.470 ,4,0,0.,24.0,0.,24.0,2.,24.0,0.,24.0
1979-07-28 18:33:45.470 ,3,1,0.,24.0,0.,24.0,4.,24.0,0.,24.0
1979-07-28 18:34:09.470 ,3,0,0.,24.0,0.,24.0,2.,24.0,0.,24.0
1979-07-28 18:34:33.470 ,2,1,0.,24.0,0.,24.0,0.,24.0,0.,24.0
1979-07-28 18:34:57.470 ,2,0,0.,24.0,0.,24.0,3.,24.0,0.,24.0
1979-07-28 18:35:21.470 ,1,1,0.,24.0,0.,24.0,1.,24.0,0.,24.0
1979-07-28 18:35:45.470 ,1,0,0.,24.0,1.,24.0,1.,24.0,0.,24.0
1979-07-28 18:36:09.470 ,0,1,0.,24.0,0.,24.0,2.,24.0,0.,24.0
1979-07-28 18:36:33.470 ,0,0,0.,24.0,0.,24.0,2.,24.0,0.,24.0
1979-07-28 18:36:57.470 ,0,1,0.,24.0,0.,24.0,1.,24.0,0.,24.0
1979-07-28 18:37:21.470 ,0,0,0.,24.0,0.,24.0,2.,24.0,0.,24.0
1979-07-28 18:37:45.470 ,1,1,0.,24.0,0.,24.0,1.,24.0,0.,24.0
1979-07-28 18:38:09.470 ,1,0,0.,24.0,0.,24.0,1.,24.0,0.,24.0
1979-07-28 18:38:33.470 ,2,1,0.,24.0,0.,24.0,2.,24.0,0.,24.0
1979-07-28 18:38:57.470 ,2,0,0.,24.0,0.,24.0,1.,24.0,0.,24.0
1979-07-28 18:39:21.470 ,3,1,0.,24.0,0.,24.0,0.,24.0,0.,24.0
1979-07-28 18:39:45.470 ,3,0,0.,24.0,0.,24.0,1.,24.0,0.,24.0
1979-07-28 18:40:09.470 ,4,1,0.,24.0,0.,24.0,1.,24.0,0.,24.0
1979-07-28 18:40:33.470 ,4,0,0.,24.0,0.,24.0,1.,24.0,0.,24.0
1979-07-28 18:40:57.470 ,5,1,0.,24.0,0.,24.0,2.,24.0,0.,24.0
1979-07-28 18:41:21.470 ,5,0,0.,24.0,0.,24.0,2.,24.0,0.,24.0
1979-07-28 18:41:45.470 ,6,1,0.,24.0,0.,24.0,4.,24.0,0.,24.0
1979-07-28 18:42:09.470 ,6,0,0.,24.0,0.,24.0,0.,24.0,0.,24.0
1979-07-28 18:42:33.470 ,7,0,9.,24.0,0.,24.0,2.,24.0,0.,24.0
1979-07-28 18:42:57.470 ,7,0,35.,24.0,0.,24.0,1.,24.0,0.,24.0
1979-07-28 18:43:21.460 ,5,1,19.,24.0,0.,24.0,4.,24.0,0.,24.0
1979-07-28 18:43:45.460 ,1,1,1.,24.0,0.,24.0,2.,24.0,0.,24.0
1979-07-28 18:44:09.460 ,2,1,0.,24.0,0.,24.0,1.,24.0,0.,24.0
1979-07-28 18:44:33.460 ,6,1,0.,24.0,0.,24.0,1.,24.0,0.,24.0
1979-07-28 18:44:57.460 ,5,1,12.,24.0,0.,24.0,3.,24.0,0.,24.0
1979-07-28 18:45:21.460 ,1,1,0.,24.0,0.,24.0,1.,24.0,0.,24.0
1979-07-28 18:45:45.460 ,2,1,0.,24.0,0.,24.0,0.,24.0,0.,24.0
1979-07-28 18:46:09.460 ,6,1,0.,24.0,0.,24.0,1.,24.0,0.,24.0
1979-07-28 18:46:33.460 ,5,1,22.,24.0,0.,24.0,0.,24.0,0.,24.0
1979-07-28 18:46:57.460 ,1,1,0.,24.0,0.,24.0,0.,24.0,0.,24.0
1979-07-28 18:47:21.460 ,2,1,0.,24.0,0.,24.0,2.,24.0,0.,24.0
1979-07-28 18:47:45.460 ,6,1,0.,24.0,0.,24.0,0.,24.0,0.,24.0
1979-07-28 18:48:09.460 ,5,1,15.,24.0,0.,24.0,3.,24.0,0.,24.0
1979-07-28 18:48:33.460 ,1,1,0.,24.0,0.,24.0,1.,24.0,0.,24.0
1979-07-28 18:48:57.460 ,2,1,0.,24.0,0.,24.0,2.,24.0,0.,24.0
1979-07-28 18:49:21.460 ,6,1,0.,24.0,1.,24.0,1.,24.0,0.,24.0
1979-07-28 18:49:45.460 ,5,1,21.,24.0,0.,24.0,0.,24.0,0.,24.0
1979-07-28 18:50:09.460 ,1,1,0.,24.0,0.,24.0,1.,24.0,0.,24.0
1979-07-28 18:50:33.460 ,2,1,0.,24.0,0.,24.0,1.,24.0,0.,24.0
1979-07-28 18:50:57.460 ,6,1,0.,24.0,0.,24.0,2.,24.0,0.,24.0
1979-07-28 18:51:21.460 ,5,1,16.,24.0,0.,24.0,1.,24.0,0.,24.0
1979-07-28 18:51:45.460 ,1,1,0.,24.0,0.,24.0,2.,24.0,0.,24.0
1979-07-28 18:52:09.460 ,2,1,0.,24.0,0.,24.0,1.,24.0,0.,24.0
1979-07-28 18:52:33.460 ,6,1,0.,24.0,0.,24.0,1.,24.0,0.,24.0
1979-07-28 18:52:57.460 ,5,1,12.,24.0,0.,24.0,1.,24.0,0.,24.0
1979-07-28 18:53:21.460 ,1,1,0.,24.0,0.,24.0,1.,24.0,0.,24.0
1979-07-28 18:53:45.460 ,0,0,0.,24.0,0.,24.0,2.,24.0,0.,24.0
1979-07-28 18:54:09.460 ,0,0,0.,24.0,0.,24.0,1.,24.0,0.,24.0
1979-07-28 18:54:33.460 ,5,1,12.,24.0,1.,24.0,1.,24.0,0.,24.0
1979-07-28 18:54:57.460 ,5,0,0.,24.0,0.,24.0,2.,24.0,0.,24.0
1979-07-28 18:55:21.460 ,4,1,0.,24.0,0.,24.0,3.,24.0,0.,24.0
1979-07-28 18:55:45.460 ,4,0,0.,24.0,0.,24.0,2.,24.0,0.,24.0
1979-07-28 18:56:09.460 ,3,1,0.,24.0,0.,24.0,4.,24.0,0.,24.0
1979-07-28 18:56:33.460 ,3,0,0.,24.0,0.,24.0,1.,24.0,0.,24.0
1979-07-28 18:56:57.460 ,2,1,0.,24.0,0.,24.0,3.,24.0,0.,24.0
1979-07-28 18:57:21.460 ,2,0,0.,24.0,0.,24.0,0.,24.0,0.,24.0
1979-07-28 18:57:45.460 ,1,1,0.,24.0,0.,24.0,1.,24.0,0.,24.0
1979-07-28 18:58:09.460 ,1,0,0.,24.0,0.,24.0,0.,24.0,0.,24.0
1979-07-28 18:58:33.460 ,0,1,0.,24.0,0.,24.0,1.,24.0,0.,24.0
1979-07-28 18:58:57.460 ,0,0,0.,24.0,0.,24.0,1.,24.0,0.,24.0
1979-07-28 18:59:21.460 ,0,1,0.,24.0,0.,24.0,2.,24.0,0.,24.0
1979-07-28 18:59:45.460 ,0,0,0.,24.0,0.,24.0,3.,24.0,0.,24.0
1979-07-28 19:00:09.460 ,1,1,0.,24.0,1.,24.0,5.,24.0,0.,24.0
1979-07-28 19:00:33.460 ,1,0,1.,24.0,0.,24.0,0.,24.0,0.,24.0
1979-07-28 19:00:57.460 ,2,1,0.,24.0,0.,24.0,2.,24.0,0.,24.0
1979-07-28 19:01:21.460 ,2,0,0.,24.0,0.,24.0,1.,24.0,0.,24.0
1979-07-28 19:01:45.460 ,3,1,0.,24.0,0.,24.0,3.,24.0,0.,24.0
1979-07-28 19:02:09.460 ,3,0,0.,24.0,0.,24.0,0.,24.0,0.,24.0
1979-07-28 19:02:33.460 ,4,1,0.,24.0,0.,24.0,0.,24.0,0.,24.0
1979-07-28 19:02:57.460 ,4,0,0.,24.0,0.,24.0,8.,24.0,0.,24.0
1979-07-28 19:03:21.460 ,5,1,0.,24.0,0.,24.0,2.,24.0,0.,24.0
1979-07-28 19:03:45.460 ,5,0,0.,24.0,0.,24.0,1.,24.0,0.,24.0
1979-07-28 19:04:09.460 ,6,1,0.,24.0,0.,24.0,0.,24.0,0.,24.0
1979-07-28 19:04:33.460 ,6,0,0.,24.0,0.,24.0,3.,24.0,0.,24.0
1979-07-28 19:04:57.460 ,7,1,10.,24.0,0.,24.0,1.,24.0,0.,24.0
1979-07-28 19:05:21.460 ,7,0,27.,24.0,0.,24.0,0.,24.0,0.,24.0
1979-07-28 19:05:45.460 ,7,1,27.,24.0,0.,24.0,3.,24.0,0.,24.0
1979-07-28 19:06:09.460 ,7,0,32.,24.0,0.,24.0,1.,24.0,0.,24.0
1979-07-28 19:06:33.460 ,6,1,23.,24.0,0.,24.0,0.,24.0,0.,24.0
1979-07-28 19:06:57.460 ,6,0,0.,24.0,0.,24.0,1.,24.0,0.,24.0
1979-07-28 19:07:21.460 ,5,1,0.,24.0,0.,24.0,3.,24.0,0.,24.0
1979-07-28 19:07:45.460 ,5,0,0.,24.0,0.,24.0,2.,24.0,0.,24.0
1979-07-28 19:08:09.460 ,4,1,0.,24.0,0.,24.0,2.,24.0,0.,24.0
1979-07-28 19:08:33.460 ,4,0,0.,24.0,0.,24.0,1.,24.0,0.,24.0
1979-07-28 19:08:57.460 ,3,1,0.,24.0,0.,24.0,2.,24.0,0.,24.0
1979-07-28 19:09:21.460 ,3,0,0.,24.0,0.,24.0,4.,24.0,0.,24.0
1979-07-28 19:09:45.460 ,2,1,0.,24.0,0.,24.0,1.,24.0,0.,24.0
1979-07-28 19:10:09.460 ,2,0,0.,24.0,0.,24.0,1.,24.0,0.,24.0
1979-07-28 19:10:33.460 ,1,1,0.,24.0,0.,24.0,2.,24.0,0.,24.0
1979-07-28 19:10:57.460 ,1,0,0.,24.0,0.,24.0,3.,24.0,0.,24.0
1979-07-28 19:11:21.460 ,0,1,0.,24.0,0.,24.0,1.,24.0,0.,24.0
1979-07-28 19:11:45.460 ,0,0,0.,24.0,0.,24.0,2.,24.0,0.,24.0
1979-07-28 19:12:09.460 ,0,1,0.,24.0,0.,24.0,3.,24.0,0.,24.0
1979-07-28 19:12:33.460 ,0,0,0.,24.0,0.,24.0,1.,24.0,0.,24.0
1979-07-28 19:12:57.460 ,1,1,0.,24.0,0.,24.0,3.,24.0,0.,24.0
1979-07-28 19:13:21.460 ,1,0,1.,24.0,0.,24.0,1.,24.0,0.,24.0
1979-07-28 19:13:45.460 ,2,1,0.,24.0,0.,24.0,3.,24.0,0.,24.0
1979-07-28 19:14:09.460 ,2,0,0.,24.0,0.,24.0,1.,24.0,0.,24.0
1979-07-28 19:14:33.460 ,3,1,0.,24.0,0.,24.0,1.,24.0,0.,24.0
1979-07-28 19:14:57.460 ,3,0,0.,24.0,0.,24.0,1.,24.0,0.,24.0
1979-07-28 19:15:21.460 ,4,1,0.,24.0,0.,24.0,3.,24.0,0.,24.0
1979-07-28 19:15:45.460 ,4,0,0.,24.0,0.,24.0,0.,24.0,0.,24.0
1979-07-28 19:16:09.460 ,5,1,0.,24.0,0.,24.0,3.,24.0,0.,24.0
1979-07-28 19:16:33.460 ,5,0,0.,24.0,0.,24.0,2.,24.0,0.,24.0
1979-07-28 19:16:57.460 ,6,1,0.,24.0,0.,24.0,1.,24.0,0.,24.0
1979-07-28 19:17:21.460 ,6,0,1.,24.0,0.,24.0,3.,24.0,0.,24.0
1979-07-28 19:17:45.460 ,7,1,6.,24.0,0.,24.0,6.,24.0,0.,24.0
1979-07-28 19:18:09.460 ,7,0,24.,24.0,0.,24.0,2.,24.0,0.,24.0
1979-07-28 19:18:33.460 ,7,1,28.,24.0,0.,24.0,3.,24.0,0.,24.0
1979-07-28 19:18:57.460 ,7,0,25.,24.0,0.,24.0,4.,24.0,0.,24.0
1979-07-28 19:19:21.460 ,6,1,22.,24.0,0.,24.0,2.,24.0,0.,24.0
1979-07-28 19:19:45.460 ,6,0,0.,24.0,0.,24.0,1.,24.0,0.,24.0
1979-07-28 19:20:09.460 ,5,1,0.,24.0,0.,24.0,1.,24.0,0.,24.0
1979-07-28 19:20:33.460 ,5,0,1.,24.0,0.,24.0,2.,24.0,0.,24.0
1979-07-28 19:20:57.460 ,4,1,0.,24.0,0.,24.0,1.,24.0,0.,24.0
1979-07-28 19:21:21.460 ,4,0,0.,24.0,0.,24.0,0.,24.0,0.,24.0
1979-07-28 19:21:45.460 ,3,1,0.,24.0,0.,24.0,3.,24.0,0.,24.0
1979-07-28 19:22:09.460 ,3,0,0.,24.0,0.,24.0,2.,24.0,0.,24.0
1979-07-28 19:22:33.460 ,2,1,0.,24.0,0.,24.0,1.,24.0,0.,24.0
1979-07-28 19:22:57.460 ,2,0,0.,24.0,0.,24.0,1.,24.0,0.,24.0
1979-07-28 19:23:21.460 ,1,1,0.,24.0,0.,24.0,2.,24.0,0.,24.0
1979-07-28 19:23:45.460 ,1,0,0.,24.0,0.,24.0,1.,24.0,0.,24.0
1979-07-28 19:24:09.460 ,0,1,0.,24.0,0.,24.0,1.,24.0,0.,24.0
1979-07-28 19:24:33.460 ,0,0,0.,24.0,0.,24.0,0.,24.0,0.,24.0
1979-07-28 19:24:57.460 ,0,1,0.,24.0,0.,24.0,0.,24.0,0.,24.0
1979-07-28 19:25:21.460 ,0,0,0.,24.0,0.,24.0,5.,24.0,0.,24.0
1979-07-28 19:25:45.460 ,1,1,0.,24.0,0.,24.0,1.,24.0,0.,24.0
1979-07-28 19:26:09.460 ,1,0,0.,24.0,0.,24.0,1.,24.0,0.,24.0
1979-07-28 19:26:33.460 ,2,1,0.,24.0,0.,24.0,3.,24.0,0.,24.0
1979-07-28 19:26:57.460 ,2,0,0.,24.0,0.,24.0,3.,24.0,0.,24.0
1979-07-28 19:27:21.460 ,3,1,0.,24.0,0.,24.0,2.,24.0,0.,24.0
1979-07-28 19:27:45.460 ,3,0,0.,24.0,0.,24.0,1.,24.0,0.,24.0
1979-07-28 19:28:09.460 ,4,1,0.,24.0,0.,24.0,0.,24.0,0.,24.0
1979-07-28 19:28:33.460 ,4,0,0.,24.0,0.,24.0,1.,24.0,0.,24.0
1979-07-28 19:28:57.460 ,5,1,0.,24.0,0.,24.0,1.,24.0,0.,24.0
1979-07-28 19:29:21.460 ,5,0,0.,24.0,0.,24.0,2.,24.0,0.,24.0
1979-07-28 19:29:45.460 ,6,1,0.,24.0,0.,24.0,3.,24.0,0.,24.0
1979-07-28 19:30:09.460 ,6,0,0.,24.0,0.,24.0,0.,24.0,0.,24.0
1979-07-28 19:30:33.460 ,7,0,9.,24.0,0.,24.0,3.,24.0,0.,24.0
1979-07-28 19:30:57.460 ,7,0,30.,24.0,0.,24.0,0.,24.0,0.,24.0
1979-07-28 19:31:21.460 ,5,1,15.,24.0,0.,24.0,2.,24.0,0.,24.0
1979-07-28 19:31:45.460 ,1,1,0.,24.0,0.,24.0,2.,24.0,0.,24.0
1979-07-28 19:32:09.460 ,2,1,0.,24.0,0.,24.0,3.,24.0,0.,24.0
1979-07-28 19:32:33.460 ,6,1,1.,24.0,0.,24.0,3.,24.0,0.,24.0
1979-07-28 19:32:57.460 ,5,1,10.,24.0,0.,24.0,1.,24.0,0.,24.0
1979-07-28 19:33:21.460 ,1,1,0.,24.0,0.,24.0,0.,24.0,0.,24.0
1979-07-28 19:33:45.460 ,2,1,0.,24.0,0.,24.0,3.,24.0,0.,24.0
1979-07-28 19:34:09.460 ,6,1,0.,24.0,0.,24.0,1.,24.0,0.,24.0
1979-07-28 19:34:33.460 ,5,1,18.,24.0,0.,24.0,4.,24.0,0.,24.0
1979-07-28 19:34:57.460 ,1,1,0.,24.0,0.,24.0,3.,24.0,0.,24.0
1979-07-28 19:35:21.460 ,2,1,0.,24.0,0.,24.0,0.,24.0,0.,24.0
1979-07-28 19:35:45.460 ,6,1,0.,24.0,0.,24.0,7.,24.0,0.,24.0
1979-07-28 19:36:09.460 ,5,1,23.,24.0,0.,24.0,4.,24.0,0.,24.0
1979-07-28 19:36:33.460 ,1,1,0.,24.0,0.,24.0,3.,24.0,0.,24.0
1979-07-28 19:36:57.460 ,2,1,0.,24.0,0.,24.0,5.,24.0,0.,24.0
1979-07-28 19:37:21.460 ,6,1,1.,24.0,0.,24.0,5.,24.0,0.,24.0
1979-07-28 19:37:45.460 ,5,1,16.,24.0,0.,24.0,2.,24.0,0.,24.0
1979-07-28 19:38:09.460 ,1,1,0.,24.0,0.,24.0,2.,24.0,0.,24.0
1979-07-28 19:38:33.460 ,2,1,0.,24.0,0.,24.0,2.,24.0,0.,24.0
1979-07-28 19:38:57.460 ,6,1,0.,24.0,0.,24.0,2.,24.0,0.,24.0
1979-07-28 19:39:21.460 ,5,1,15.,24.0,0.,24.0,0.,24.0,0.,24.0
1979-07-28 19:39:45.460 ,1,1,0.,24.0,0.,24.0,1.,24.0,0.,24.0
1979-07-28 19:40:09.460 ,2,1,1.,24.0,0.,24.0,2.,24.0,0.,24.0
1979-07-28 19:40:33.460 ,6,1,0.,24.0,0.,24.0,0.,24.0,0.,24.0
1979-07-28 19:40:57.460 ,5,1,12.,24.0,0.,24.0,2.,24.0,0.,24.0
1979-07-28 19:41:21.460 ,1,1,0.,24.0,0.,24.0,2.,24.0,0.,24.0
1979-07-28 19:41:45.460 ,0,0,0.,24.0,0.,24.0,3.,24.0,0.,24.0
1979-07-28 19:42:09.460 ,0,0,0.,24.0,0.,24.0,0.,24.0,0.,24.0
1979-07-28 19:42:33.460 ,5,1,18.,24.0,0.,24.0,4.,24.0,0.,24.0
1979-07-28 19:42:57.460 ,5,0,0.,24.0,0.,24.0,3.,24.0,0.,24.0
1979-07-28 19:43:21.460 ,4,1,0.,24.0,0.,24.0,3.,24.0,0.,24.0
1979-07-28 19:43:45.460 ,4,0,0.,24.0,0.,24.0,3.,24.0,0.,24.0
1979-07-28 19:44:09.460 ,3,1,0.,24.0,0.,24.0,1.,24.0,0.,24.0
1979-07-28 19:44:33.460 ,3,0,0.,24.0,0.,24.0,3.,24.0,0.,24.0
1979-07-28 19:44:57.460 ,2,1,0.,24.0,0.,24.0,1.,24.0,0.,24.0
1979-07-28 19:45:21.460 ,2,0,0.,24.0,0.,24.0,0.,24.0,0.,24.0
1979-07-28 19:45:45.460 ,1,1,0.,24.0,0.,24.0,1.,24.0,0.,24.0
1979-07-28 19:46:09.460 ,1,0,0.,24.0,0.,24.0,1.,24.0,0.,24.0
1979-07-28 19:46:33.460 ,0,1,0.,24.0,0.,24.0,1.,24.0,0.,24.0
1979-07-28 19:46:57.460 ,0,0,0.,24.0,0.,24.0,2.,24.0,0.,24.0
1979-07-28 19:47:21.460 ,0,1,0.,24.0,0.,24.0,2.,24.0,0.,24.0
1979-07-28 19:47:45.460 ,0,0,0.,24.0,0.,24.0,5.,24.0,0.,24.0
1979-07-28 19:48:09.460 ,1,1,0.,24.0,0.,24.0,2.,24.0,0.,24.0
1979-07-28 19:48:33.460 ,1,0,0.,24.0,0.,24.0,2.,24.0,0.,24.0
1979-07-28 19:48:57.460 ,2,1,0.,24.0,0.,24.0,2.,24.0,0.,24.0
1979-07-28 19:49:21.460 ,2,0,0.,24.0,0.,24.0,2.,24.0,0.,24.0
1979-07-28 19:49:45.460 ,3,1,0.,24.0,0.,24.0,1.,24.0,0.,24.0
1979-07-28 19:50:09.460 ,3,0,0.,24.0,0.,24.0,2.,24.0,0.,24.0
1979-07-28 19:50:33.460 ,4,1,0.,24.0,0.,24.0,5.,24.0,0.,24.0
1979-07-28 19:50:57.460 ,4,0,0.,24.0,0.,24.0,2.,24.0,0.,24.0
1979-07-28 19:51:21.460 ,5,1,0.,24.0,0.,24.0,2.,24.0,0.,24.0
1979-07-28 19:51:45.460 ,5,0,0.,24.0,0.,24.0,0.,24.0,0.,24.0
1979-07-28 19:52:09.460 ,6,1,1.,24.0,0.,24.0,2.,24.0,0.,24.0
1979-07-28 19:52:33.460 ,6,0,0.,24.0,0.,24.0,2.,24.0,0.,24.0
1979-07-28 19:52:57.460 ,7,1,6.,24.0,0.,24.0,2.,24.0,0.,24.0
1979-07-28 19:53:21.460 ,7,0,32.,24.0,0.,24.0,1.,24.0,0.,24.0
1979-07-28 19:53:45.460 ,7,1,32.,24.0,0.,24.0,1.,24.0,0.,24.0
1979-07-28 19:54:09.460 ,7,0,40.,24.0,0.,24.0,0.,24.0,0.,24.0
1979-07-28 19:54:33.460 ,6,1,15.,24.0,0.,24.0,1.,24.0,0.,24.0
1979-07-28 19:54:57.460 ,6,0,0.,24.0,0.,24.0,3.,24.0,0.,24.0
1979-07-28 19:55:21.460 ,5,1,0.,24.0,0.,24.0,1.,24.0,0.,24.0
1979-07-28 19:55:45.460 ,5,0,0.,24.0,0.,24.0,1.,24.0,0.,24.0
1979-07-28 19:56:09.460 ,4,1,0.,24.0,0.,24.0,2.,24.0,0.,24.0
1979-07-28 19:56:33.460 ,4,0,0.,24.0,0.,24.0,0.,24.0,0.,24.0
1979-07-28 19:56:57.460 ,3,1,0.,24.0,0.,24.0,2.,24.0,0.,24.0
1979-07-28 19:57:21.460 ,3,0,1.,24.0,0.,24.0,1.,24.0,0.,24.0
1979-07-28 19:57:45.460 ,2,1,0.,24.0,0.,24.0,1.,24.0,0.,24.0
1979-07-28 19:58:09.460 ,2,0,1.,24.0,0.,24.0,2.,24.0,0.,24.0
1979-07-28 19:58:33.460 ,1,1,0.,24.0,0.,24.0,1.,24.0,0.,24.0
1979-07-28 19:58:57.460 ,1,0,0.,24.0,0.,24.0,2.,24.0,0.,24.0
1979-07-28 19:59:21.460 ,0,1,0.,24.0,0.,24.0,0.,24.0,0.,24.0
1979-07-28 19:59:45.460 ,0,0,0.,24.0,0.,24.0,1.,24.0,0.,24.0
1979-07-28 20:00:09.460 ,0,1,0.,24.0,0.,24.0,0.,24.0,0.,24.0
1979-07-28 20:00:33.460 ,0,0,0.,24.0,0.,24.0,1.,24.0,0.,24.0
1979-07-28 20:00:57.460 ,1,1,0.,24.0,0.,24.0,1.,24.0,0.,24.0
1979-07-28 20:01:21.460 ,1,0,0.,24.0,0.,24.0,1.,24.0,0.,24.0
1979-07-28 20:01:45.460 ,2,1,0.,24.0,0.,24.0,1.,24.0,0.,24.0
1979-07-28 20:02:09.460 ,2,0,0.,24.0,0.,24.0,2.,24.0,0.,24.0
1979-07-28 20:02:33.460 ,3,1,0.,24.0,0.,24.0,2.,24.0,0.,24.0
1979-07-28 20:02:57.460 ,3,0,0.,24.0,0.,24.0,0.,24.0,0.,24.0
1979-07-28 20:03:21.460 ,4,1,0.,24.0,0.,24.0,2.,24.0,0.,24.0
1979-07-28 20:03:45.460 ,4,0,0.,24.0,0.,24.0,4.,24.0,0.,24.0
1979-07-28 20:04:09.460 ,5,1,0.,24.0,0.,24.0,2.,24.0,0.,24.0
1979-07-28 20:04:33.460 ,5,0,1.,24.0,0.,24.0,1.,24.0,0.,24.0
1979-07-28 20:04:57.460 ,6,1,0.,24.0,0.,24.0,1.,24.0,0.,24.0
1979-07-28 20:05:21.460 ,6,0,0.,24.0,0.,24.0,0.,24.0,0.,24.0
1979-07-28 20:05:45.460 ,7,1,11.,24.0,0.,24.0,0.,24.0,0.,24.0
1979-07-28 20:06:09.460 ,7,0,36.,24.0,0.,24.0,1.,24.0,0.,24.0
1979-07-28 20:06:33.460 ,7,1,34.,24.0,0.,24.0,2.,24.0,0.,24.0
1979-07-28 20:06:57.460 ,7,0,33.,24.0,0.,24.0,4.,24.0,0.,24.0
1979-07-28 20:07:21.460 ,6,1,19.,24.0,0.,24.0,0.,24.0,0.,24.0
1979-07-28 20:07:45.460 ,6,0,0.,24.0,0.,24.0,1.,24.0,0.,24.0
1979-07-28 20:08:09.460 ,5,1,0.,24.0,0.,24.0,1.,24.0,0.,24.0
1979-07-28 20:08:33.460 ,5,0,0.,24.0,0.,24.0,4.,24.0,0.,24.0
1979-07-28 20:08:57.460 ,4,1,0.,24.0,0.,24.0,1.,24.0,0.,24.0
1979-07-28 20:09:21.460 ,4,0,0.,24.0,0.,24.0,1.,24.0,0.,24.0
1979-07-28 20:09:45.460 ,3,1,0.,24.0,0.,24.0,4.,24.0,0.,24.0
1979-07-28 20:10:09.460 ,3,0,1.,24.0,0.,24.0,1.,24.0,0.,24.0
1979-07-28 20:10:33.460 ,2,1,0.,24.0,0.,24.0,0.,24.0,0.,24.0
1979-07-28 20:10:57.460 ,2,0,0.,24.0,0.,24.0,2.,24.0,0.,24.0
1979-07-28 20:11:21.460 ,1,1,1.,24.0,0.,24.0,3.,24.0,0.,24.0
1979-07-28 20:11:45.460 ,1,0,0.,24.0,0.,24.0,0.,24.0,0.,24.0
1979-07-28 20:12:09.460 ,0,1,0.,24.0,0.,24.0,0.,24.0,0.,24.0
1979-07-28 20:12:33.460 ,0,0,0.,24.0,0.,24.0,0.,24.0,0.,24.0
1979-07-28 20:12:57.460 ,0,1,0.,24.0,0.,24.0,0.,24.0,0.,24.0
1979-07-28 20:13:21.460 ,0,0,0.,24.0,0.,24.0,2.,24.0,0.,24.0
1979-07-28 20:13:45.460 ,1,1,0.,24.0,0.,24.0,1.,24.0,0.,24.0
1979-07-28 20:14:09.460 ,1,0,0.,24.0,0.,24.0,0.,24.0,0.,24.0
1979-07-28 20:14:33.460 ,2,1,0.,24.0,0.,24.0,0.,24.0,0.,24.0
1979-07-28 20:14:57.460 ,2,0,0.,24.0,0.,24.0,1.,24.0,0.,24.0
1979-07-28 20:15:21.460 ,3,1,0.,24.0,0.,24.0,1.,24.0,0.,24.0
1979-07-28 20:15:45.460 ,3,0,0.,24.0,0.,24.0,0.,24.0,0.,24.0
1979-07-28 20:16:09.460 ,4,1,1.,24.0,0.,24.0,0.,24.0,0.,24.0
1979-07-28 20:16:33.460 ,4,0,1.,24.0,0.,24.0,4.,24.0,0.,24.0
1979-07-28 20:16:57.460 ,5,1,0.,24.0,0.,24.0,0.,24.0,0.,24.0
1979-07-28 20:17:21.460 ,5,0,0.,24.0,0.,24.0,1.,24.0,0.,24.0
1979-07-28 20:17:45.460 ,6,1,0.,24.0,0.,24.0,1.,24.0,0.,24.0
1979-07-28 20:18:09.460 ,6,0,0.,24.0,0.,24.0,1.,24.0,0.,24.0
1979-07-28 20:18:33.460 ,7,0,5.,24.0,0.,24.0,3.,24.0,0.,24.0
1979-07-28 20:18:57.460 ,7,0,28.,24.0,0.,24.0,2.,24.0,0.,24.0
1979-07-28 20:19:21.460 ,5,1,16.,24.0,0.,24.0,2.,24.0,0.,24.0
1979-07-28 20:19:45.460 ,1,1,0.,24.0,0.,24.0,1.,24.0,0.,24.0
1979-07-28 20:20:09.460 ,2,1,0.,24.0,0.,24.0,0.,24.0,0.,24.0
1979-07-28 20:20:33.460 ,6,1,0.,24.0,0.,24.0,1.,24.0,0.,24.0
1979-07-28 20:20:57.460 ,5,1,21.,24.0,0.,24.0,0.,24.0,0.,24.0
1979-07-28 20:21:21.460 ,1,1,0.,24.0,0.,24.0,1.,24.0,0.,24.0
1979-07-28 20:21:45.460 ,2,1,0.,24.0,0.,24.0,0.,24.0,0.,24.0
1979-07-28 20:22:09.460 ,6,1,0.,24.0,0.,24.0,0.,24.0,0.,24.0
1979-07-28 20:22:33.460 ,5,1,14.,24.0,0.,24.0,1.,24.0,0.,24.0
1979-07-28 20:22:57.460 ,1,1,0.,24.0,0.,24.0,0.,24.0,0.,24.0
1979-07-28 20:23:21.460 ,2,1,0.,24.0,1.,24.0,2.,24.0,0.,24.0
1979-07-28 20:23:45.460 ,6,1,0.,24.0,0.,24.0,2.,24.0,0.,24.0
1979-07-28 20:24:09.460 ,5,1,13.,24.0,0.,24.0,1.,24.0,0.,24.0
1979-07-28 20:24:33.460 ,1,1,0.,24.0,0.,24.0,2.,24.0,0.,24.0
1979-07-28 20:24:57.460 ,2,1,0.,24.0,0.,24.0,0.,24.0,0.,24.0
1979-07-28 20:25:21.460 ,6,1,0.,24.0,0.,24.0,3.,24.0,0.,24.0
1979-07-28 20:25:45.460 ,5,1,11.,24.0,0.,24.0,1.,24.0,0.,24.0
1979-07-28 20:26:09.460 ,1,1,0.,24.0,0.,24.0,0.,24.0,0.,24.0
1979-07-28 20:26:33.460 ,2,1,0.,24.0,0.,24.0,0.,24.0,0.,24.0
1979-07-28 20:26:57.460 ,6,1,0.,24.0,0.,24.0,1.,24.0,0.,24.0
1979-07-28 20:27:21.460 ,5,1,18.,24.0,0.,24.0,0.,24.0,0.,24.0
1979-07-28 20:27:45.460 ,1,1,0.,24.0,0.,24.0,3.,24.0,0.,24.0
1979-07-28 20:28:09.460 ,2,1,0.,24.0,0.,24.0,2.,24.0,0.,24.0
1979-07-28 20:28:33.460 ,6,1,0.,24.0,0.,24.0,1.,24.0,0.,24.0
1979-07-28 20:28:57.460 ,5,1,13.,24.0,0.,24.0,1.,24.0,0.,24.0
1979-07-28 20:29:21.460 ,1,1,0.,24.0,0.,24.0,1.,24.0,0.,24.0
1979-07-28 20:29:45.460 ,0,0,0.,24.0,0.,24.0,3.,24.0,0.,24.0
1979-07-28 20:30:09.460 ,0,0,0.,24.0,0.,24.0,1.,24.0,0.,24.0
1979-07-28 20:30:33.460 ,5,1,18.,24.0,0.,24.0,0.,24.0,0.,24.0
1979-07-28 20:30:57.460 ,5,0,0.,24.0,0.,24.0,1.,24.0,0.,24.0
1979-07-28 20:31:21.460 ,4,1,0.,24.0,0.,24.0,3.,24.0,0.,24.0
1979-07-28 20:31:45.460 ,4,0,0.,24.0,0.,24.0,1.,24.0,0.,24.0
1979-07-28 20:32:09.460 ,3,1,0.,24.0,0.,24.0,0.,24.0,0.,24.0
1979-07-28 20:32:33.460 ,3,0,0.,24.0,0.,24.0,1.,24.0,0.,24.0
1979-07-28 20:32:57.460 ,2,1,0.,24.0,0.,24.0,3.,24.0,0.,24.0
1979-07-28 20:33:21.460 ,2,0,0.,24.0,0.,24.0,2.,24.0,0.,24.0
1979-07-28 20:33:45.460 ,1,1,0.,24.0,0.,24.0,2.,24.0,0.,24.0
1979-07-28 20:34:09.460 ,1,0,0.,24.0,0.,24.0,1.,24.0,0.,24.0